Regional Weather Roundup
Issued by NWS Wakefield, VA

Home | Current Version | Previous Version | Graphics & Text | Print | Product List | Glossary On
Versions: 1 2 3 4 5 6 7 8 9 10 11 12 13 14 15 16 17 18 19 20 21 22 23 24 25 26 27
000
ASUS41 KAKQ 240410
RWRAKQ

REGIONAL WEATHER ROUNDUP
NATIONAL WEATHER SERVICE WAKEFIELD VA
1200 AM EDT FRI OCT 24 2014

Note: "fair" indicates few or no clouds below 12,000 feet with no
significant weather and/or obstructions to visibility. * = Denotes
station may not report precipitation (e.g., rain,snow,etc.),
thunder or fog.

VAZ042-051-052>054-056-240500-
NORTHERN VIRGINIA

CITY           SKY/WX    TMP DP  RH WIND       PRES   REMARKS
WASH NATIONAL  PTCLDY    62  39  42 NW14      29.93R
DULLES         CLEAR     57  40  52 NW16      29.93S
FORT BELVOIR   CLEAR     59  42  53 NW13      29.92S
QUANTICO       CLEAR     59  42  53 N9        29.93S
FREDERICKSBRG* CLEAR     59  44  58 NW8       29.93S
STAFFORD*      CLEAR     56  41  57 NW14      29.96F
WARRENTON      CLEAR     59  48  68 W10G20    29.94R
CULPEPER*      CLEAR     61  43  51 NW6       29.96R
MANASSAS*      CLEAR     57  45  62 NW10G18   29.93S
LEESBURG*      PTCLDY    59  43  55 NW20G25   29.95R
WINCHESTER     CLEAR     55  36  47 NW8       29.98R
FRONT ROYAL*   CLEAR     55  41  58 W7        29.98R
LURAY*         PTCLDY    57  45  62 W7        30.01S
$$

VAZ048-049-060>072-079>083-240500-
CENTRAL AND SOUTH CENTRAL VIRGINIA...AND NORTH CENTRAL NORTH CAROLINA

CITY           SKY/WX    TMP DP  RH WIND       PRES   REMARKS
RICHMOND       CLEAR     56  43  61 NW9       29.95S
CHESTERFIELD*    N/A    N/A N/A N/A MISG        N/A
PETERSBURG*    CLEAR     52  42  68 W8        29.97S
HANOVER        CLEAR     51  44  77 NW7       29.97R
TAPPAHANNOCK*  CLEAR     55  41  59 W6        29.93S
CHARLOTTSVILLE CLEAR     58  40  51 NW13G23   29.97S
ORANGE*        CLEAR     55  43  62 W6        29.96S
LOUISA*        CLEAR     52  45  76 SW3       29.95R
FARMVILLE*     CLEAR     52  39  62 SW5       29.99R
CREWE*         CLEAR     53  41  63 NW10      29.98S
FORT PICKETT*  CLEAR     52  42  69 W8        29.99R
LUNENBURG*     CLEAR     52  43  71 W5        30.00R
SOUTH HILL*    CLEAR     54  45  71 NW5       30.04S
LAWRENCEVILLE* CLEAR     51  44  79 W5        29.98R
ROANOKE RAPIDS CLEAR     50  45  81 CALM      29.98S
RALEIGH        PTCLDY    54  41  61 CALM      30.02F
$$

VAZ088>098-240500-
SOUTHEAST VIRGINIA

CITY           SKY/WX    TMP DP  RH WIND       PRES   REMARKS
NORFOLK        CLEAR     61  44  53 NW9       29.91S
VIRGINIA BEACH CLEAR     59  45  59 W9        29.90S
NORFOLK NAVAL  CLEAR     61  47  59 W10       29.93S
WEST POINT*    CLEAR     59  45  58 W8        29.93S
NEWPORT NEWS   CLEAR     61  45  55 NW10G20   29.92S
LANGLEY AFB    CLEAR     59  45  60 W13       29.92R
FORT EUSTIS    CLEAR     59  43  55 NW15      29.91S
WILLIAMSBURG*  CLEAR     55  48  76 NW9       29.94R
HR EXEC AP*    CLEAR     52  45  76 NW5       29.95S
FRANKLIN*      CLEAR     52  46  82 W7        29.95S
WAKEFIELD      CLEAR     53  45  74 CALM      29.95R
$$

VAZ020-022-025-037-045-240500-
WEST CENTRAL AND SOUTHWEST VIRGINIA

CITY           SKY/WX    TMP DP  RH WIND       PRES   REMARKS
STAUNTON*      CLEAR     43  38  82 CALM      30.05S
HOT SPRINGS VA PTCLDY    40  38  92 NW15      30.04S
LYNCHBURG      CLEAR     47  40  76 SW5       30.05F
DANVILLE       CLEAR     54  40  59 NW9       30.05R
SOUTH BOSTON*  NOT AVBL
MARTINSVILLE   CLEAR     48  41  77 N3        30.07F
ROANOKE        CLEAR     50  39  66 W3        30.09F
BLACKSBURG     CLEAR     41  41 100 CALM      30.11S
DUBLIN*        PTCLDY    47  42  81 W3        30.11F
MARION*        CLEAR     39  37  91 CALM      30.14S
HILLSVILLE*    CLEAR     42  38  85 NW9       30.09F
RICHLANDS*     MOCLDY    44  40  85 CALM      30.12F
WISE*          CLEAR     37  37 100 CALM      30.14S
ABINGDON*      PTCLDY    39  38  94 CALM      30.12F
$$

MDZ021>025-VAZ099-100-240500-
SOUTHERN MARYLAND AND THE DELMARVA PENINSULA

CITY           SKY/WX    TMP DP  RH WIND       PRES   REMARKS
PATUXENT RIVER CLOUDY    54  47  77 W6        29.89S
BAY BRIDGE APT   N/A     59  48  67 NW5       29.88F
LEONARDTOWN    CLOUDY    54  45  71 CALM      29.91S
DOVER          PTCLDY    54  46  74 NW9       29.82F
GEORGETOWN     CLEAR     55  45  68 VRB6      29.86S
EASTON         MOCLDY    59  50  72 N8        29.91F
CAMBRIDGE      MOCLDY    59  46  63 NW6       29.87F
SALISBURY      CLOUDY    59  46  62 NW14G20   29.86F
OCEAN CITY     CLEAR     53  45  74 NW9       29.85F
WALLOPS ISLAND CLOUDY    57  49  74 NW6       29.88R
ACCOMACK*      CLOUDY    59  46  63 N6        29.89R
$$

NCZ012>017-030>032-240500-
EASTERN NORTH CAROLINA

CITY           SKY/WX    TMP DP  RH WIND       PRES   REMARKS
ELIZABETH CITY CLEAR     56  46  69 W7        29.93S
AHOSKIE*       CLEAR     49  46  90 CALM      29.98S
EDENTON*       PTCLDY    52  50  93 W6        29.96R
CURRITUCK*     CLEAR     55  45  70 W7        29.93S
KILL DEVIL HLS CLEAR     59  49  69 W6        29.91S
MANTEO         CLEAR     59  49  68 W6        29.93S
CAPE HATTERAS  PTCLDY    60  51  72 VRB6      29.94F
TARBORO*       CLEAR     51  47  83 W6        30.01R
GOLDSBORO      CLEAR     56  50  79 NW7       29.98S
WASHINGTON     CLEAR     53  47  79 NW3       29.98F
GREENVILLE     CLEAR     54  46  76 CALM      30.01R
NEW BERN       CLEAR     56  47  71 NW5       29.99F
WILMINGTON     CLEAR     55  48  77 W3        30.00F
$$

VAZ048-240500-
ELSEWHERE

CITY           SKY/WX    TMP DP  RH WIND       PRES   REMARKS
HARRISBURG PA  CLOUDY    59  40  49 NW12      29.89S
BALTIMORE      MOCLDY    55  47  74 W3        29.89S
ANNAPOLIS      CLOUDY    58  49  72 CALM      29.88F
ANDREWS AFB    MOCLDY    60  41  50 NW9       29.90S
WILMINGTON DE  CLOUDY    54  45  71 N6        29.85F
PHILADELPHIA   MOCLDY    55  43  63 NW10      29.83F
WILDWOOD NJ*   CLEAR     54  43  66 NW9       29.83F
ATLANTIC CITY  PTCLDY    50  44  80 NW14      29.79F
HENDERSON NC   CLEAR     51  41  70 W3        30.02R
GREENSBORO     CLEAR     48  40  73 NE3       30.03F
ROCKY MOUNT    CLEAR     54  45  71 W5        30.01R
FAYETTEVILLE   CLEAR     53  45  74 W3        30.01S
CHARLOTTE      MOCLDY    44  41  89 N6        30.04F
$$

VAZ100-240500-
MARINE

STATION/POSITION TIME  TEMP    WIND        PRES    WAVE   SWELL
                       AIR SEA DIR/SP/G            HT/PER HT/PER
                 (UTC) (F)     (DEG/KT/KT) (MB)    (FT/S) (FT/S)
44066 TX TWR #4  0400   56 66  330/ 25/ 31 1004.4R  10/ 7
CAPE MAY NJ      0400   55 63  330/  9/ 19 1009.5F
LEWES DE         0400   57 58  320/ 19/ 23 1010.1F
15NM E FENWICK I 0400   58 64  320/ 23/ 29 1009.0F   7/ 6   2/13
OCEAN-CITY-INLET 0400   56 63  350/ 11/ 15 1010.4R
WACHAPREAGUE VA  0400   59 60  330/  2/  5 1012.1R
THOMAS POINT MD  0400   59 63  300/  5/  5 1013.1S
GOOSES REEF MD   0400   61      30/ 10/ 12 1012.7S
COVE POINT MD    0400   60      20/ 11/ 13 1012.0S
SOLOMONS ISLAND  0400      64                N/A
BISHOPS HEAD MD  0400   58 56  340/  6/  8 1011.4S
PINEY POINT MD   0400          330/ 19/ 21   N/A
POTOMAC MD       0400   62     340/ 14/ 17 1011.5S
CAMBRIDGE MD     0400   59 60  340/ 10/ 12 1011.4F
LEWISETTA VA     0400   60 60  300/ 10/ 13 1012.0R
RAPPAHANNOCK LGT 0400          300/ 20/ 22 1012.5R
STINGRAY PT      0400   62     300/ 17/ 21 1012.7R
YORK RVR RNG VA  0400   60     310/ 17/ 19 1012.2R
YORKTOWN VA      0400   60 64  300/ 16/ 19 1012.6S
JAMESTOWN VA     0400   60     320/ 16/ 17   N/A
DOMINION TERM VA 0400   61     310/ 16/ 19 1013.0R
KIPTOPEKE VA     0400      66  320/ 24/ 27   N/A
CHES BAY BRIDGE  0400   62 65  290/ 21/ 25 1012.1S
CHESAPEAKE LGHT  0300   63     300/ 20/ 22 1013.0R
WILLOUBY STN VA  0400   61     310/ 17/ 20 1011.7R
S CRANEY ISL VA  0400          250/  8/ 12 1012.9S
CAPE HENRY BUOY  0400      68                N/A     5/ 5
1ST LANDING BUOY 0400   63     300/ 21/ 25 1012.0S
CAPE CHARLES BUO 0400      67                N/A     4/ 4   2/ 7
64NM E OF VA BCH 0400   64 67  320/ 19/ 25 1010.6R   8/ 9   5/ 9
DUCK PIER NC     0400   60 66  280/ 11/ 13 1012.2S
44100 DUCK FRF   0400      68                N/A     5/ 6
44056 DUCK FRF   0400                        N/A     4/ 6
OREGON INLET NC  0400   59 64  280/  9/ 10 1013.0F
HATTERAS NC      0400   63 63  310/ 12/ 13 1014.2F
DIAMOND SHLS NC  0400   65     320/ 17/ 19 1013.7R   5/ 5   2/ 9
CAPE LOOKOUT NC  0300   66     300/ 12/ 14 1014.8R
$$



USA.gov is the U.S. government's official web portal to all federal, state and local government web resources and services.